Home   Weather   Changchun   Past weeks

Flag for China Past Weather in Changchun, Jilin, China — Yesterday and Last 2 Weeks

Now
14 °F

Passing clouds.


Feels Like: 8 °F
Forecast: 9 / 20 °F
Wind: 3 mph from South

Location: Changchun Airport

Current Time: Dec 8, 2016 at 6:31:53 am

Latest Report: Dec 8, 2016 at 6:00 am


Visibility: 4 mi

Pressure: 30.01 "Hg

Humidity: 73%

Dew Point: 7 °F

Location of ChangchunLocation

Past Weather in Changchun — Graph

°F

Changchun Temperature Yesterday

Maximum temperature yesterday: 19 °F (at 2:00 pm)
Minimum temperature yesterday: 1 °F (at 6:00 am)
Average temperature yesterday: 11 °F

High & Low Weather Summary for the Past Weeks

 TemperatureHumidityPressure
High43 °F (Dec 3, 2:00 pm)93% (Nov 30, 6:00 am)30.63 "Hg (Nov 30, 6:00 am)
Low0 °F (Nov 23, 5:00 am)38% (Nov 24, 12:00 pm)29.89 "Hg (Nov 26, 1:00 pm)
Average20 °F66%30.20 "Hg
* Reported Nov 23 5:00 am — Dec 8 5:00 am, Changchun, Weather by CustomWeather, © 2016

Note: Actual official high and low records may vary slightly from our data, if they occured in-between our weather recording intervals... More about our weather records

Advertising

Changchun Weather History for the Previous 24 Hours

Scroll right to see more
 ConditionsComfort  
Time TempWeatherWind HumidityBarometerVisibility
5:00 am
Thu, Dec 8
14 °FPassing clouds.3 mph73%30.01 "Hg5 mi
4:00 am14 °FPassing clouds.3 mph73%30.01 "Hg4 mi
3:00 am14 °FPassing clouds.3 mph73%30.04 "Hg4 mi
2:00 am14 °FPassing clouds.6 mph73%30.04 "Hg4 mi
1:00 am12 °FPassing clouds.6 mph79%30.04 "Hg4 mi
12:00 am12 °FIce fog.10 mph79%30.07 "Hg3 mi
11:00 pm
Wed, Dec 7
14 °FIce fog.6 mph67%30.09 "Hg3 mi
10:00 pm12 °FIce fog.3 mph73%30.12 "Hg3 mi
9:00 pm14 °FPassing clouds.8 mph73%30.12 "Hg4 mi
8:00 pm16 °FPassing clouds.8 mph67%30.12 "Hg4 mi
7:00 pm16 °FPassing clouds.6 mph67%30.15 "Hg4 mi
6:00 pm14 °FHaze.6 mph67%30.15 "Hg3 mi
5:00 pm16 °FHaze.8 mph67%30.18 "Hg3 mi
4:00 pm18 °FClear.8 mph62%30.18 "Hg4 mi
3:00 pm19 °FClear.6 mph53%30.18 "Hg5 mi
2:00 pm19 °FClear.3 mph53%30.18 "Hg5 mi
1:00 pm18 °FIce fog.3 mph58%30.21 "Hg3 mi
12:00 pm16 °FIce fog.6 mph57%30.21 "Hg3 mi
11:00 am14 °FClear.3 mph62%30.24 "Hg4 mi
10:00 am10 °FIce fog.1 mph72%30.24 "Hg2 mi
8:00 am3 °FIce fog.1 mph78%30.24 "Hg1 mi
7:00 am1 °FIce fog.1 mph78%30.21 "Hg2 mi
6:00 am1 °FIce fog.1 mph78%30.21 "Hg2 mi
Weather by CustomWeather, © 2016

See weather overviewHow to use our weather pages